CZ-4 DEB

Satellite information

Favourite Embed

Satellite Type and Status

DEBRISIN ORBIT

Key statistics

Satellite CZ-4 DEB at a glance.

Uptime

12726

Days in orbit

Revolutions

≈ 14.0

Per day

Orbit

SSO

Sun Synchronous Orbit

Inclination

99.4

Latest

Satellite identification and parameters

Extended collection of information and parameters for CZ-4 DEB.

Object identification

Identified? True

Debris? True

Object name: CZ-4 DEB

International designator: 1990-081AP

Object number (NORAD): 20879

Object ID (CCSDS): 20879

Country: PEOPLES REPUBLIC OF CHINA (PRC)

Current information (Y/N): Y

RCS size: MEDIUM

Orbital parameters

Period: 102.544 minutes

Inclination: 99.427 deg

SMA: 7257.144 km

Apoapsis: 951.83 km

Periapsis: 806.187 km

RAAN: 12.8055 deg

Eccentricy: 0.0100344

Argument of periapsis: 40.6189 deg

Mean anomaly: 13.4872 deg

Mean motion: 14.04281551 rev/day

Mean motion (dot): 0.0000054 rev/day2

B* drag term: 0.00035331 1/REarth

Two-line elements (TLE)

Creation date: July 6, 2025, 6:05 p.m.

Reference frame: TEME

Reference center: EARTH

Epoch: July 6, 2025, 11:34 a.m. UTC

TLE line 0: 0 CZ-4 DEB

TLE line 1: 1 20879U 90081AP 25187.48254782 .00000540 00000-0 35331-3 0 9994

TLE line 2: 2 20879 99.4270 12.8055 0100344 40.6189 13.4872 14.04281551593115

Live tracking on map

Real-time ground track for satellite CZ-4 DEB.

In-orbit conjunctions

A list of the most updated potential collisions computed for object CZ-4 DEB.

Target Orbit TCA Probability of collision Miss distance Type
ATLAS H R/B LEO 2025-01-30 10:11:07 0.0001332481 376.0 (m) ROCKET BODY
METEOR 2-12 DEB LEO 2025-01-02 21:55:55 0.0001359485 505.0 (m) DEBRIS
COSMOS 1579 COOLANT LEO 2024-11-17 03:42:36 0.0002240897 554.0 (m) DEBRIS
FENGYUN 1C DEB SSO 2024-11-15 16:36:56 0.0001698731 840.0 (m) DEBRIS
NOAA 16 DEB SSO 2024-07-17 02:52:15 0.0001900227 42.0 (m) DEBRIS

Associated space launch

Chinese polar orbiting meteorological satellite

CZ-4 DEB was lifted into orbit during the mission ‘Long March 4A | Feng Yun 1B’, on board a Long March 4A space rocket.

The launch took place on Sept. 3, 1990, 12:53 a.m. from Launch Complex 7.

For more information about the launch, click the button.

Launch to space Long March 4A | Feng Yun 1B
Long March 4A | Feng Yun 1B

Agency: N/A

Status: Launch Successful

Launch date: Sept. 3, 1990, 12:53 a.m. UTC

Rocket: Long March 4A

Launch pad: Launch Complex 7

Location: Taiyuan Satellite Launch Center, People's Republic of China

...

Latest news about this satellite

There are no fresh news available about this satellite. Check back as we update our databases every day.


Newsletter sign-up

Weekly statistics, charts and insights to help you stay on top of the space industry.